Back to catalog

FENGYUN 1C DEB

AliveSSO
NORAD 31339·DEBRIS·🇨🇳 China

Launched May 10, 1999 from Taiyuan Satellite Launch Center

Loading…

Next Passes (next 24 hours)

TLE

FreshSource: Space-Track

Epoch: Sep 14, 2026, 07:11 UTC

1 31339U 99025BQT 26257.29964224  .00000887  00000-0  48713-3 0  9993
2 31339  98.7034 271.3132 0072672 260.2849  99.0110 14.12968552995686

Track FENGYUN 1C DEB in real time with AllMySat

Download on the App Store